Leyna Grace — LEYNA1 — position and weather

sailwx.info

Track history (hours):
 
Tides and Currents Weather Stations Pressure Air Temp Water Temp Dewpoint Dewpoint Depression Visibility Wind Speed Wind Dir Waves Ship Positions

Leyna Grace

Last reported at 2014-Aug-24 18:33 UTC. Time now 2014-Sep-16 07:31 UTC.
Position N 40°58' W 073°24'.
Warning: this ship's position is 22 days out of date.

Length 14 m.

Type: Pleasure craft. MMSI: 338086517.

Date/timePositionNaut miles runAvg speedWind from/ knotsBaromVisibWave heightAir tempDewpointWater temp
2014-Aug-24 18:33N 40°58' W 073°24'2620.1
2014-Aug-24 17:16N 41°04' W 072°51'1420.1
2014-Aug-24 16:33N 41°07' W 072°32'1414.0
2014-Aug-24 15:33N 41°09' W 072°13'  
2014-Aug-21 17:33N 41°21' W 072°23'6 6.2
2014-Aug-21 16:33N 41°15' W 072°20'1717.3
2014-Aug-21 15:33N 41°13' W 071°57'1616.3
2014-Aug-21 14:33N 41°12' W 071°36'1 1.3
2014-Aug-21 13:33N 41°11' W 071°35'0 0.0
2014-Aug-21 12:33N 41°11' W 071°35'0 0.0
2014-Aug-21 11:33N 41°11' W 071°35'0 0.0
2014-Aug-21 10:30N 41°11' W 071°35'0 0.0
2014-Aug-21 09:33N 41°11' W 071°35'0 0.0
2014-Aug-21 08:33N 41°11' W 071°35'0 0.0
2014-Aug-21 07:33N 41°11' W 071°35'0 0.0
2014-Aug-21 06:27N 41°11' W 071°35'0 0.0
2014-Aug-21 05:33N 41°11' W 071°35'0 0.0
2014-Aug-21 04:33N 41°11' W 071°35'0 0.0
2014-Aug-21 03:27N 41°11' W 071°35'0 0.0
2014-Aug-21 02:24N 41°11' W 071°35'0 0.0
2014-Aug-21 01:30N 41°11' W 071°35'0 0.0
2014-Aug-21 00:33N 41°11' W 071°35'0 0.0
2014-Aug-20 23:30N 41°11' W 071°35'0 0.0
2014-Aug-20 22:33N 41°11' W 071°35'0 0.0
2014-Aug-20 21:30N 41°11' W 071°35'0 0.0
2014-Aug-20 20:33N 41°11' W 071°35'0 0.0
2014-Aug-20 19:33N 41°11' W 071°35'0 0.0
2014-Aug-20 18:33N 41°11' W 071°35'0 0.0
2014-Aug-20 17:33N 41°11' W 071°35'0 0.0
2014-Aug-20 16:33N 41°11' W 071°35'0 0.0
2014-Aug-20 15:33N 41°11' W 071°35'0 0.0
2014-Aug-20 14:33N 41°11' W 071°35'0 0.0
2014-Aug-20 13:33N 41°11' W 071°35'0 0.0
2014-Aug-20 12:30N 41°11' W 071°35'0 0.0
2014-Aug-20 11:33N 41°11' W 071°35'0 0.0
2014-Aug-20 10:33N 41°11' W 071°35'0 0.0
2014-Aug-20 09:33N 41°11' W 071°35'0 0.0
2014-Aug-20 08:33N 41°11' W 071°35'0 0.0
2014-Aug-20 07:33N 41°11' W 071°35'0 0.0
2014-Aug-20 06:33N 41°11' W 071°35'0 0.0
2014-Aug-20 05:33N 41°11' W 071°35'0 0.0
2014-Aug-20 04:33N 41°11' W 071°35'0 0.0
2014-Aug-20 03:33N 41°11' W 071°35'0 0.0
2014-Aug-20 02:33N 41°11' W 071°35'0 0.0
2014-Aug-20 01:33N 41°11' W 071°35'0 0.0
2014-Aug-19 18:34N 41°11' W 071°35'1111.2
2014-Aug-19 17:34N 41°17' W 071°47'7 6.4
2014-Aug-19 16:32N 41°20' W 071°55'  
2014-Aug-15 17:23N 41°20' W 071°55'8 9.8
2014-Aug-15 16:33N 41°16' W 072°04'1515.0
2014-Aug-15 15:33N 41°07' W 072°20'0 0.0
2014-Aug-14 21:33N 41°07' W 072°20'3 3.1
2014-Aug-14 20:33N 41°08' W 072°24'  
Track history (hours):
 
Tides and Currents Weather Stations Pressure Air Temp Water Temp Dewpoint Dewpoint Depression Visibility Wind Speed Wind Dir Waves Ship Positions

Leyna Grace

Last reported at 2014-Aug-24 18:33 UTC. Time now 2014-Sep-16 07:31 UTC.
Position N 40°58' W 073°24'.
Warning: this ship's position is 22 days out of date.

Length 14 m.

Type: Pleasure craft. MMSI: 338086517.

Date/timePositionNaut miles runAvg speedWind from/ knotsBaromVisibWave heightAir tempDewpointWater temp
2014-Aug-24 18:33N 40°58' W 073°24'2620.1
2014-Aug-24 17:16N 41°04' W 072°51'1420.1
2014-Aug-24 16:33N 41°07' W 072°32'1414.0
2014-Aug-24 15:33N 41°09' W 072°13'  
2014-Aug-21 17:33N 41°21' W 072°23'6 6.2
2014-Aug-21 16:33N 41°15' W 072°20'1717.3
2014-Aug-21 15:33N 41°13' W 071°57'1616.3
2014-Aug-21 14:33N 41°12' W 071°36'1 1.3
2014-Aug-21 13:33N 41°11' W 071°35'0 0.0
2014-Aug-21 12:33N 41°11' W 071°35'0 0.0
2014-Aug-21 11:33N 41°11' W 071°35'0 0.0
2014-Aug-21 10:30N 41°11' W 071°35'0 0.0
2014-Aug-21 09:33N 41°11' W 071°35'0 0.0
2014-Aug-21 08:33N 41°11' W 071°35'0 0.0
2014-Aug-21 07:33N 41°11' W 071°35'0 0.0
2014-Aug-21 06:27N 41°11' W 071°35'0 0.0
2014-Aug-21 05:33N 41°11' W 071°35'0 0.0
2014-Aug-21 04:33N 41°11' W 071°35'0 0.0
2014-Aug-21 03:27N 41°11' W 071°35'0 0.0
2014-Aug-21 02:24N 41°11' W 071°35'0 0.0
2014-Aug-21 01:30N 41°11' W 071°35'0 0.0
2014-Aug-21 00:33N 41°11' W 071°35'0 0.0
2014-Aug-20 23:30N 41°11' W 071°35'0 0.0
2014-Aug-20 22:33N 41°11' W 071°35'0 0.0
2014-Aug-20 21:30N 41°11' W 071°35'0 0.0
2014-Aug-20 20:33N 41°11' W 071°35'0 0.0
2014-Aug-20 19:33N 41°11' W 071°35'0 0.0
2014-Aug-20 18:33N 41°11' W 071°35'0 0.0
2014-Aug-20 17:33N 41°11' W 071°35'0 0.0
2014-Aug-20 16:33N 41°11' W 071°35'0 0.0
2014-Aug-20 15:33N 41°11' W 071°35'0 0.0
2014-Aug-20 14:33N 41°11' W 071°35'0 0.0
2014-Aug-20 13:33N 41°11' W 071°35'0 0.0
2014-Aug-20 12:30N 41°11' W 071°35'0 0.0
2014-Aug-20 11:33N 41°11' W 071°35'0 0.0
2014-Aug-20 10:33N 41°11' W 071°35'0 0.0
2014-Aug-20 09:33N 41°11' W 071°35'0 0.0
2014-Aug-20 08:33N 41°11' W 071°35'0 0.0
2014-Aug-20 07:33N 41°11' W 071°35'0 0.0
2014-Aug-20 06:33N 41°11' W 071°35'0 0.0
2014-Aug-20 05:33N 41°11' W 071°35'0 0.0
2014-Aug-20 04:33N 41°11' W 071°35'0 0.0
2014-Aug-20 03:33N 41°11' W 071°35'0 0.0
2014-Aug-20 02:33N 41°11' W 071°35'0 0.0
2014-Aug-20 01:33N 41°11' W 071°35'0 0.0
2014-Aug-19 18:34N 41°11' W 071°35'1111.2
2014-Aug-19 17:34N 41°17' W 071°47'7 6.4
2014-Aug-19 16:32N 41°20' W 071°55'  
2014-Aug-15 17:23N 41°20' W 071°55'8 9.8
2014-Aug-15 16:33N 41°16' W 072°04'1515.0
2014-Aug-15 15:33N 41°07' W 072°20'0 0.0
2014-Aug-14 21:33N 41°07' W 072°20'3 3.1
2014-Aug-14 20:33N 41°08' W 072°24'  

Dump ship's entire track history